| time (UTC) | temp C | wind direction | speed KPH | gust KPH | rain 1hr cm | rain 24hr cm | rain mn cm | humidity % | barometer mb |
| 20260902095519 | 19 | 90 | 3.2 | 9.7 | 0.00 | 3.40 | 0.03 | 100 | 1016.7 |
| 20260902094519 | 19 | 90 | 1.6 | 4.8 | 0.00 | 3.40 | 0.03 | 100 | 1016.8 |
| 20260902093519 | 19 | 0.0 | 0.0 | 0.00 | 3.40 | 0.03 | 100 | 1016.7 | |
| 20260902092519 | 19 | 0.0 | 0.0 | 0.00 | 3.40 | 0.03 | 100 | 1016.8 | |
| 20260902091519 | 19 | 0.0 | 0.0 | 0.00 | 3.40 | 0.03 | 100 | 1016.4 | |
| 20260902090730 | 19 | 0.0 | 0.0 | 0.00 | 3.40 | 0.03 | 100 | 1016.4 | |
| 20260902085519 | 19 | 0.0 | 0.0 | 0.00 | 3.40 | 0.03 | 100 | 1016.4 | |
| 20260902084518 | 19 | 0.0 | 0.0 | 0.00 | 3.40 | 0.03 | 100 | 1016.4 | |
| 20260902083519 | 19 | 0.0 | 0.0 | 0.00 | 3.40 | 0.03 | 100 | 1016.4 | |
| 20260902082728 | 19 | 0.0 | 0.0 | 0.00 | 3.40 | 0.03 | 100 | 1016.1 | |
| 20260902081519 | 19 | 0.0 | 0.0 | 0.00 | 3.40 | 0.03 | 100 | 1016.1 | |
| 20260902080837 | 19 | 0.0 | 0.0 | 0.00 | 3.40 | 0.03 | 100 | 1016.0 | |
| 20260902074519 | 19 | 0.0 | 0.0 | 0.00 | 3.40 | 0.03 | 100 | 1016.0 | |
| 20260902073519 | 19 | 0.0 | 0.0 | 0.00 | 3.40 | 0.03 | 100 | 1015.9 | |
| 20260902072519 | 19 | 0.0 | 3.2 | 0.00 | 3.40 | 0.03 | 100 | 1015.9 | |
| 20260902071519 | 20 | 0.0 | 0.0 | 0.03 | 3.40 | 0.03 | 100 | 1016.0 | |
| 20260902070519 | 20 | 0.0 | 0.0 | 0.03 | 3.40 | 0.03 | 100 | 1016.0 | |
| 20260902065732 | 20 | 0.0 | 0.0 | 0.03 | 3.40 | 0.03 | 100 | 1016.1 | |
| 20260902064519 | 20 | 0.0 | 0.0 | 0.03 | 3.40 | 0.03 | 100 | 1016.1 | |
| 20260902063519 | 20 | 0.0 | 0.0 | 0.03 | 3.40 | 0.03 | 100 | 1016.1 | |
| 20260902062943 | 20 | 0.0 | 0.0 | 0.03 | 3.40 | 0.03 | 100 | 1016.1 | |
| 20260902061519 | 20 | 0.0 | 0.0 | 0.00 | 3.38 | 0.00 | 100 | 1016.1 | |
| 20260902060519 | 20 | 0.0 | 0.0 | 0.00 | 3.38 | 0.00 | 100 | 1016.0 | |
| 20260902055733 | 20 | 0.0 | 0.0 | 0.00 | 3.38 | 0.00 | 100 | 1016.1 | |
| 20260902054519 | 20 | 0.0 | 0.0 | 0.00 | 3.38 | 0.00 | 100 | 1016.1 | |
| 20260902053519 | 20 | 0.0 | 0.0 | 0.00 | 3.38 | 0.00 | 100 | 1016.0 | |
| 20260902052519 | 20 | 0.0 | 0.0 | 0.00 | 3.38 | 0.00 | 100 | 1016.1 | |
| 20260902051519 | 20 | 0.0 | 0.0 | 0.00 | 3.38 | 0.00 | 100 | 1016.1 | |
| 20260902050519 | 20 | 0.0 | 0.0 | 0.00 | 3.38 | 0.00 | 100 | 1016.1 | |
| 20260902045519 | 20 | 0.0 | 1.6 | 0.00 | 3.38 | 0.00 | 100 | 1016.0 | |
| 20260902044519 | 20 | 0.0 | 3.2 | 0.00 | 3.38 | 0.00 | 100 | 1015.7 | |
| 20260902043519 | 20 | 0.0 | 1.6 | 0.00 | 3.38 | 0.00 | 100 | 1015.5 | |
| 20260902042519 | 20 | 90 | 1.6 | 3.2 | 0.00 | 3.38 | 0.00 | 100 | 1015.5 |
| 20260902041519 | 20 | 90 | 1.6 | 4.8 | 0.03 | 3.38 | 0.00 | 100 | 1015.4 |
| 20260902040519 | 20 | 90 | 1.6 | 4.8 | 0.18 | 3.38 | 0.00 | 100 | 1015.4 |
| 20260902035520 | 20 | 0.0 | 1.6 | 0.84 | 3.38 | 3.38 | 100 | 1015.6 | |
| 20260902034518 | 20 | 0.0 | 3.2 | 1.60 | 3.38 | 3.38 | 100 | 1015.3 | |
| 20260902033520 | 20 | 0.0 | 3.2 | 2.92 | 3.38 | 3.38 | 100 | 1015.4 | |
| 20260902032520 | 20 | 0.0 | 3.2 | 3.12 | 3.38 | 3.38 | 100 | 1015.4 | |
| 20260902031518 | 20 | 90 | 1.6 | 8.0 | 3.10 | 3.35 | 3.35 | 100 | 1015.6 |
| 20260902030520 | 20 | 90 | 3.2 | 12.9 | 3.00 | 3.20 | 3.20 | 100 | 1016.5 |
| 20260902025521 | 21 | 68 | 6.4 | 17.7 | 2.34 | 2.54 | 2.54 | 100 | 1016.5 |
| 20260902024518 | 21 | 90 | 4.8 | 16.1 | 1.60 | 1.78 | 1.78 | 100 | 1016.5 |
| 20260902023519 | 21 | 90 | 1.6 | 8.0 | 0.30 | 0.46 | 0.46 | 100 | 1015.6 |
| 20260902022521 | 22 | 90 | 1.6 | 4.8 | 0.10 | 0.25 | 0.25 | 100 | 1014.7 |
| 20260902021733 | 22 | 0.0 | 1.6 | 0.10 | 0.25 | 0.25 | 100 | 1014.8 | |
| 20260902020542 | 23 | 90 | 3.2 | 9.7 | 0.05 | 0.20 | 0.20 | 100 | 1014.6 |
| 20260902015521 | 24 | 68 | 1.6 | 11.3 | 0.05 | 0.20 | 0.20 | 100 | 1014.6 |
| 20260902014520 | 25 | 68 | 6.4 | 20.9 | 0.03 | 0.18 | 0.18 | 100 | 1014.6 |
| 20260902013519 | 25 | 68 | 6.4 | 14.5 | 0.00 | 0.15 | 0.15 | 100 | 1014.4 |
| 20260902012518 | 26 | 68 | 6.4 | 22.5 | 0.00 | 0.15 | 0.15 | 21 | 1014.0 |
| 20260902011520 | 26 | 68 | 9.7 | 27.4 | 0.00 | 0.15 | 0.15 | 8 | 1014.0 |
| 20260902010519 | 26 | 338 | 1.6 | 4.8 | 0.00 | 0.15 | 0.15 | 100 | 1013.9 |
| 20260902005518 | 26 | 0.0 | 0.0 | 0.00 | 0.15 | 0.15 | 100 | 1013.5 | |
| 20260902004520 | 26 | 0.0 | 0.0 | 0.00 | 0.15 | 0.15 | 100 | 1013.3 | |
| 20260902003519 | 27 | 0.0 | 0.0 | 0.00 | 0.15 | 0.15 | 100 | 1013.1 | |
| 20260902002519 | 27 | 0.0 | 0.0 | 0.00 | 0.15 | 0.15 | 100 | 1012.8 | |
| 20260902001729 | 27 | 0.0 | 0.0 | 0.00 | 0.15 | 0.15 | 100 | 1012.3 | |
| 20260902000520 | 27 | 0.0 | 0.0 | 0.00 | 0.15 | 0.15 | 100 | 1012.2 | |
| 20260901235519 | 28 | 0.0 | 0.0 | 0.00 | 0.15 | 0.15 | 100 | 1012.3 | |
| 20260901234518 | 28 | 0.0 | 0.0 | 0.00 | 0.15 | 0.15 | 7 | 1012.0 | |
| 20260901233946 | 29 | 0.0 | 0.0 | 0.00 | 0.15 | 0.15 | 23 | 1011.9 | |
| 20260901232519 | 30 | 0.0 | 0.0 | 0.00 | 0.15 | 0.15 | 34 | 1012.0 | |
| 20260901231519 | 30 | 0.0 | 0.0 | 0.00 | 0.15 | 0.15 | 44 | 1012.1 | |
| 20260901230518 | 30 | 0.0 | 1.6 | 0.00 | 0.15 | 0.15 | 47 | 1012.0 | |
| 20260901225520 | 31 | 0.0 | 1.6 | 0.00 | 0.15 | 0.15 | 45 | 1012.1 | |
| 20260901224519 | 31 | 0.0 | 1.6 | 0.00 | 0.15 | 0.15 | 50 | 1012.2 | |
| 20260901223519 | 31 | 293 | 1.6 | 4.8 | 0.00 | 0.15 | 0.15 | 58 | 1012.1 |
| 20260901222730 | 32 | 293 | 1.6 | 3.2 | 0.00 | 0.15 | 0.15 | 54 | 1012.2 |
| 20260901221519 | 32 | 293 | 1.6 | 4.8 | 0.00 | 0.15 | 0.15 | 56 | 1012.3 |
| 20260901220521 | 32 | 0.0 | 0.0 | 0.00 | 0.15 | 0.15 | 57 | 1012.0 | |
| 20260901215519 | 32 | 0.0 | 0.0 | 0.00 | 0.15 | 0.15 | 56 | 1011.9 | |
| 20260901214518 | 32 | 0.0 | 0.0 | 0.00 | 0.15 | 0.15 | 56 | 1012.1 | |
| 20260901213730 | 32 | 0.0 | 1.6 | 0.00 | 0.15 | 0.15 | 56 | 1012.1 | |
| 20260901212519 | 32 | 293 | 3.2 | 11.3 | 0.00 | 0.15 | 0.15 | 59 | 1012.2 |
| 20260901211519 | 32 | 293 | 3.2 | 8.0 | 0.00 | 0.15 | 0.15 | 59 | 1012.1 |
| 20260901210732 | 32 | 293 | 3.2 | 8.0 | 0.00 | 0.15 | 0.15 | 59 | 1012.2 |
| 20260901205519 | 32 | 315 | 6.4 | 14.5 | 0.00 | 0.15 | 0.15 | 58 | 1012.3 |
| 20260901204519 | 33 | 293 | 6.4 | 17.7 | 0.00 | 0.15 | 0.15 | 59 | 1012.4 |
| 20260901203519 | 33 | 293 | 3.2 | 8.0 | 0.00 | 0.15 | 0.15 | 58 | 1012.4 |
| 20260901202519 | 33 | 270 | 4.8 | 12.9 | 0.00 | 0.15 | 0.15 | 58 | 1012.3 |
| 20260901201732 | 33 | 270 | 8.0 | 17.7 | 0.00 | 0.15 | 0.15 | 57 | 1012.5 |
| 20260901200519 | 33 | 293 | 9.7 | 27.4 | 0.00 | 0.15 | 0.15 | 57 | 1012.6 |
| 20260901195519 | 32 | 270 | 8.0 | 16.1 | 0.00 | 0.15 | 0.15 | 58 | 1012.6 |
| 20260901194519 | 32 | 270 | 6.4 | 11.3 | 0.00 | 0.15 | 0.15 | 59 | 1012.7 |
| 20260901193519 | 32 | 203 | 6.4 | 16.1 | 0.00 | 0.15 | 0.15 | 59 | 1012.8 |
| 20260901192519 | 32 | 203 | 3.2 | 9.7 | 0.00 | 0.15 | 0.15 | 55 | 1013.0 |
| 20260901191519 | 32 | 248 | 4.8 | 9.7 | 0.00 | 0.15 | 0.15 | 57 | 1013.0 |
| 20260901190519 | 32 | 248 | 4.8 | 11.3 | 0.00 | 0.15 | 0.15 | 57 | 1013.0 |
| 20260901185729 | 32 | 270 | 3.2 | 9.7 | 0.00 | 0.15 | 0.15 | 54 | 1013.1 |
| 20260901184730 | 31 | 270 | 4.8 | 12.9 | 0.00 | 0.15 | 0.15 | 55 | 1013.4 |
| 20260901183731 | 32 | 293 | 6.4 | 14.5 | 0.00 | 0.15 | 0.15 | 57 | 1013.3 |
| 20260901182519 | 31 | 270 | 6.4 | 14.5 | 0.00 | 0.15 | 0.15 | 52 | 1013.4 |
| 20260901181519 | 31 | 270 | 4.8 | 11.3 | 0.00 | 0.15 | 0.15 | 48 | 1013.6 |
| 20260901180729 | 31 | 270 | 6.4 | 14.5 | 0.00 | 0.15 | 0.15 | 49 | 1013.7 |
| 20260901175519 | 31 | 203 | 6.4 | 14.5 | 0.00 | 0.15 | 0.15 | 44 | 1013.7 |
| 20260901174519 | 30 | 293 | 6.4 | 11.3 | 0.00 | 0.15 | 0.15 | 44 | 1013.8 |
| 20260901173732 | 31 | 225 | 4.8 | 11.3 | 0.00 | 0.15 | 0.15 | 35 | 1013.6 |
| 20260901172541 | 30 | 203 | 4.8 | 12.9 | 0.00 | 0.15 | 0.15 | 36 | 1013.6 |
| 20260901171519 | 30 | 270 | 6.4 | 17.7 | 0.00 | 0.15 | 0.15 | 38 | 1013.7 |
| 20260901170519 | 30 | 248 | 4.8 | 9.7 | 0.00 | 0.15 | 0.15 | 25 | 1013.7 |
| 20260901165519 | 30 | 225 | 8.0 | 14.5 | 0.00 | 0.15 | 0.15 | 26 | 1013.9 |
| 20260901164519 | 29 | 225 | 6.4 | 20.9 | 0.00 | 0.15 | 0.15 | 25 | 1014.1 |
| 20260901163519 | 29 | 203 | 8.0 | 17.7 | 0.00 | 0.15 | 0.15 | 18 | 1014.1 |
| 20260901162519 | 29 | 225 | 6.4 | 14.5 | 0.00 | 0.15 | 0.15 | 100 | 1014.0 |
| 20260901161519 | 28 | 225 | 6.4 | 14.5 | 0.00 | 0.15 | 0.15 | 100 | 1014.2 |
| 20260901160519 | 28 | 225 | 6.4 | 14.5 | 0.00 | 0.15 | 0.15 | 100 | 1014.2 |
| 20260901155519 | 27 | 225 | 6.4 | 12.9 | 0.00 | 0.15 | 0.15 | 100 | 1014.1 |
| 20260901154519 | 27 | 225 | 6.4 | 11.3 | 0.00 | 0.15 | 0.15 | 100 | 1014.1 |
| 20260901153519 | 26 | 225 | 1.6 | 4.8 | 0.00 | 0.15 | 0.15 | 100 | 1014.2 |
| 20260901152519 | 25 | 225 | 3.2 | 9.7 | 0.00 | 0.15 | 0.15 | 100 | 1014.4 |
| 20260901151730 | 24 | 0.0 | 3.2 | 0.00 | 0.15 | 0.15 | 100 | 1014.5 | |
| 20260901150519 | 23 | 0.0 | 3.2 | 0.13 | 0.15 | 0.15 | 100 | 1014.6 | |
| 20260901145519 | 23 | 0.0 | 3.2 | 0.13 | 0.15 | 0.15 | 100 | 1014.6 | |
| 20260901144519 | 23 | 0.0 | 3.2 | 0.13 | 0.15 | 0.15 | 100 | 1014.6 | |
| 20260901143942 | 23 | 0.0 | 3.2 | 0.13 | 0.15 | 0.15 | 100 | 1014.6 | |
| 20260901142519 | 24 | 0.0 | 1.6 | 0.13 | 0.15 | 0.15 | 100 | 1014.6 | |
| 20260901142157 | 25 | 0.0 | 1.6 | 0.13 | 0.15 | 0.15 | 100 | 1014.9 | |
| 20260901140519 | 25 | 0.0 | 3.2 | 0.00 | 0.03 | 0.03 | 100 | 1014.7 | |
| 20260901135519 | 25 | 225 | 1.6 | 3.2 | 0.00 | 0.03 | 0.03 | 100 | 1014.7 |
| 20260901134519 | 25 | 0.0 | 1.6 | 0.00 | 0.05 | 0.03 | 100 | 1014.7 | |
| 20260901133729 | 25 | 0.0 | 4.8 | 0.00 | 0.08 | 0.03 | 100 | 1014.7 | |
| 20260901132519 | 24 | 0.0 | 4.8 | 0.00 | 0.08 | 0.03 | 100 | 1014.8 | |
| 20260901131519 | 24 | 0.0 | 0.0 | 0.00 | 0.08 | 0.03 | 100 | 1015.0 | |
| 20260901130519 | 24 | 0.0 | 1.6 | 0.00 | 0.08 | 0.03 | 100 | 1015.1 | |
| 20260901125519 | 24 | 0.0 | 1.6 | 0.00 | 0.08 | 0.03 | 100 | 1015.1 | |
| 20260901124519 | 23 | 225 | 1.6 | 3.2 | 0.00 | 0.08 | 0.03 | 100 | 1015.2 |
| 20260901123519 | 23 | 0.0 | 1.6 | 0.00 | 0.08 | 0.03 | 100 | 1015.4 | |
| 20260901122519 | 22 | 0.0 | 1.6 | 0.00 | 0.08 | 0.03 | 100 | 1015.2 | |
| 20260901121519 | 22 | 0.0 | 0.0 | 0.00 | 0.08 | 0.03 | 100 | 1015.2 | |
| 20260901120519 | 21 | 0.0 | 0.0 | 0.00 | 0.08 | 0.03 | 100 | 1015.2 | |
| 20260901115729 | 21 | 0.0 | 0.0 | 0.03 | 0.08 | 0.03 | 100 | 1015.1 | |
| 20260901114729 | 20 | 0.0 | 0.0 | 0.03 | 0.08 | 0.03 | 100 | 1015.1 | |
| 20260901113519 | 20 | 0.0 | 0.0 | 0.03 | 0.08 | 0.03 | 100 | 1015.3 | |
| 20260901112519 | 20 | 0.0 | 0.0 | 0.03 | 0.08 | 0.03 | 100 | 1015.3 | |
| 20260901111733 | 20 | 0.0 | 0.0 | 0.03 | 0.08 | 0.03 | 100 | 1015.2 | |
| 20260901110519 | 20 | 0.0 | 0.0 | 0.03 | 0.08 | 0.03 | 100 | 1015.2 | |
| 20260901105730 | 20 | 0.0 | 0.0 | 0.00 | 0.05 | 0.00 | 100 | 1015.3 | |
| 20260901104519 | 20 | 0.0 | 0.0 | 0.00 | 0.05 | 0.00 | 100 | 1015.1 | |
| 20260901103519 | 20 | 0.0 | 0.0 | 0.00 | 0.05 | 0.00 | 100 | 1015.2 | |
| 20260901102945 | 20 | 0.0 | 0.0 | 0.00 | 0.05 | 0.00 | 100 | 1015.2 | |
| 20260901101519 | 20 | 0.0 | 0.0 | 0.00 | 0.05 | 0.00 | 100 | 1015.1 | |
| 20260901100942 | 20 | 0.0 | 0.0 | 0.00 | 0.05 | 0.00 | 100 | 1015.1 |